MDT,Max TemperatureF,Mean TemperatureF,Min TemperatureF,Max Dew PointF,MeanDew PointF,Min DewpointF,Max Humidity, Mean Humidity, Min Humidity, Max Sea Level PressureIn, Mean Sea Level PressureIn, Min Sea Level PressureIn, Max VisibilityMiles, Mean VisibilityMiles, Min VisibilityMiles, Max Wind SpeedMPH, Mean Wind SpeedMPH, Max Gust SpeedMPH,PrecipitationIn, CloudCover, Events, WindDirDegrees
2012-4-1,82,60,39,36,25,18,62,29,10,29.67,29.52,29.36,10,10,7,32,6,38,0.00,0,,45
2012-4-2,57,48,39,30,28,25,61,50,33,30.16,29.88,29.52,10,10,7,38,27,44,0.00,6,,354
2012-4-3,41,37,33,32,29,23,87,72,52,30.24,30.17,30.09,10,9,1,23,14,26,0.01,6,,347
2012-4-4,64,50,35,37,33,27,81,58,37,30.09,29.95,29.83,10,10,10,13,5,,0.00,3,,152
2012-4-5,73,54,35,39,36,30,93,62,25,29.92,29.86,29.77,10,10,10,22,5,28,0.00,0,,85
2012-4-6,77,58,39,45,30,7,93,54,10,29.83,29.72,29.58,10,8,2,31,10,44,0.00,1,,294
2012-4-7,62,46,30,18,12,7,55,27,14,30.31,30.23,30.05,10,10,10,23,12,31,0.00,0,,145
2012-4-8,71,50,30,21,18,12,64,34,10,30.30,30.24,30.14,10,10,10,12,6,18,0.00,0,,39
2012-4-9,68,52,35,36,25,18,54,38,21,30.24,30.18,30.10,10,10,10,13,7,17,0.00,0,,35
2012-4-10,78,58,39,45,36,25,87,53,16,30.19,30.08,29.97,10,10,10,16,6,,0.00,1,,60
2012-4-11,64,57,50,52,47,45,88,77,55,30.10,29.99,29.79,10,9,5,23,10,26,0.15,7,Thunderstorm,39
2012-4-12,66,54,42,48,38,21,93,61,19,29.81,29.73,29.64,10,10,9,22,8,29,0.00,4,,89
2012-4-13,64,50,37,36,27,18,87,43,18,29.82,29.76,29.70,10,10,10,21,10,30,0.00,3,,95
2012-4-14,60,50,39,37,30,27,81,50,29,29.74,29.60,29.50,10,10,8,23,11,29,0.03,4,Thunderstorm,354
2012-4-15,51,45,39,37,30,27,81,57,38,30.03,29.77,29.56,10,10,5,36,18,77,0.00,4,,344
2012-4-16,60,46,33,34,28,21,93,52,23,30.14,30.10,30.03,10,10,7,10,6,16,0.00,2,,140
2012-4-17,68,52,35,34,27,23,70,40,21,30.16,30.09,30.00,10,10,10,14,5,17,0.00,2,,321
2012-4-18,71,54,37,39,33,28,75,49,22,30.13,29.99,29.84,10,9,0,26,5,31,0.00,2,,108
2012-4-19,64,54,44,43,34,28,82,51,27,30.14,29.97,29.92,10,10,10,28,12,34,0.03,5,Thunderstorm,309
2012-4-20,69,52,35,37,34,30,93,55,26,30.20,30.11,30.03,10,10,10,16,8,22,0.01,1,,180
2012-4-21,75,60,46,37,35,28,71,39,25,30.30,30.12,30.03,10,10,10,15,6,20,0.00,1,,68
2012-4-22,73,58,42,39,36,32,76,46,25,30.32,30.26,30.19,10,10,9,12,5,16,0.00,3,,73
2012-4-23,82,63,44,39,34,30,76,40,15,30.23,30.12,30.00,10,10,10,16,6,22,0.00,8,,195
2012-4-24,82,65,48,37,34,27,58,32,14,30.00,29.92,29.85,10,10,5,30,6,36,0.00,4,Thunderstorm,2
2012-4-25,82,66,50,43,33,28,67,32,15,30.04,29.96,29.87,10,10,5,18,5,30,0.00,1,,322
2012-4-26,78,66,53,48,41,36,67,42,23,30.03,29.88,29.69,10,10,8,20,6,32,0.00,3,,141
2012-4-27,66,54,42,48,34,18,88,51,18,29.91,29.72,29.64,10,10,9,32,13,43,0.01,3,,313
2012-4-28,62,50,39,30,15,7,57,25,14,30.01,29.94,29.88,10,10,10,24,14,26,0.00,1,,81
2012-4-29,66,50,33,34,30,25,81,50,24,30.04,30.00,29.94,10,10,9,13,9,17,0.00,0,,28
2012-4-30,78,58,39,34,25,16,61,31,11,30.05,29.90,29.73,10,10,10,21,6,30,0.00,0,,187